Location: Gandikunta
(16.3784°N, 80.8378°E)
Time: 21:05:33
(UTC+00:00)

Cosmos 1607 - Pass Details

Date: 19 May 2025
Orbit: 930 x 971 km, 65.0° (Epoch: 21 June)

Event Time Altitude Azimuth Distance (km) Brightness Sun altitude
Rises 14:20:57 0° 332° (NNW) 3,572 7.9 -18.2°
Reaches altitude 10° 14:23:29 10° 330° (NNW) 2,629 7.1 -18.8°
Maximum altitude 14:29:33 68° 249° (WSW) 996 4.1 -20.0°
Enters shadow 14:33:38 22° 170° (S) 1,918 5.2 -20.9°
